Regional Weather Roundup
Issued by NWS

Home | Current Version | Previous Version | Graphics & Text | Print | Product List | Glossary On
Versions: 1 2 3 4 5 6 7 8 9 10 11 12 13 14 15 16 17 18 19 20 21 22 23 24 25 26 27 28 29 30 31 32 33 34 35 36 37 38 39 40 41 42 43 44 45 46 47 48 49 50
000
ASUS45 KBOI 301510
RWRID
WEATHER ROUNDUP FOR IDAHO
NATIONAL WEATHER SERVICE BOISE ID
900 AM MDT MON MAR 30 2015

NOTE: "FAIR" INDICATES FEW OR NO CLOUDS BELOW 12000 FEET
WITH NO SIGNIFICANT WEATHER AND/OR OBSTRUCTIONS TO VISIBILITY

IDZ012-014-301600-
SOUTHWEST IDAHO


CITY           SKY/WX    TMP DP  RH WIND       PRES   REMARKS
BOISE          SUNNY     46  32  58 CALM      30.17S
CALDWELL       SUNNY     39  27  60 E6        30.19R WCI  35
$$

IDZ016-017-301600-
SOUTHCENTRAL IDAHO


CITY           SKY/WX    TMP DP  RH WIND       PRES   REMARKS
BURLEY         SUNNY     41  28  60 CALM      30.21S
JEROME         SUNNY     48  21  34 E8        30.22R
TWIN FALLS     SUNNY     50  27  40 S5        30.21R
$$

IDZ019>023-301600-
SOUTHEAST IDAHO


CITY           SKY/WX    TMP DP  RH WIND       PRES   REMARKS
IDAHO FALLS    SUNNY     39  23  52 CALM      30.25R
POCATELLO      SUNNY     40  23  50 CALM      30.25R
REXBURG        SUNNY     35  24  64 N3        30.25R
$$

IDZ006-010-011-018-031-032-301600-
CENTRAL IDAHO MOUNTAINS


CITY           SKY/WX    TMP DP  RH WIND       PRES   REMARKS
MCCALL         SUNNY     33  29  85 CALM      30.19S
HAILEY         SUNNY     39  25  56 NW12      30.27R WCI  32
STANLEY          N/A     29  23  78 E3        30.30S
SALMON         SUNNY     34  27  75 CALM      30.24S
CHALLIS        SUNNY     39  24  55 CALM      30.25R
$$

IDZ002-004-006-007-026-301600-
NORTHERN IDAHO


CITY           SKY/WX    TMP DP  RH WIND       PRES   REMARKS
LEWISTON       SUNNY     47  41  80 E6        30.13S
LOWELL           N/A     37  36  96 N5        30.23F WCI  33
COEUR D`ALENE  SUNNY     43  37  81 SE7       30.13S
MULLAN PASS    SUNNY     37  28  70 S6        30.13S WCI  32
$$



USA.gov is the U.S. government's official web portal to all federal, state and local government web resources and services.